K1IC Weather Reports


Display with metric or nautical units.
time (UTC)temp
F
wind
direction
speed
MPH
gust
MPH
rain 1hr
in
rain 24hr
in
rain mn
in
humidity
%
barometer
mb
20260507180417 62 315 3.0 4.0 0.00 0.32 0.24 39 1007.2
20260507175417 62 315 4.0 5.0 0.00 0.33 0.24 39 1007.3
20260507174416 62 0.0 1.0 0.00 0.34 0.24 38 1007.4
20260507173416 62 315 2.0 4.0 0.00 0.35 0.24 40 1007.5
20260507172416 62 293 3.0 5.0 0.00 0.35 0.24 41 1007.6
20260507171436 61 315 1.0 2.0 0.00 0.36 0.24 42 1008.0
20260507170416 61 90 2.0 4.0 0.00 0.36 0.24 42 1008.1
20260507165416 60 45 3.0 6.0 0.00 0.36 0.24 41 1008.4
20260507164416 60 0 4.0 9.0 0.00 0.36 0.24 41 1008.5
20260507163416 60 338 2.0 5.0 0.00 0.36 0.24 43 1008.7
20260507162416 60 338 4.0 6.0 0.00 0.36 0.24 42 1008.7
20260507161416 59 45 4.0 6.0 0.00 0.36 0.24 42 1008.8
20260507160416 59 293 2.0 4.0 0.00 0.36 0.24 42 1008.9
20260507155416 59 315 3.0 6.0 0.00 0.36 0.24 44 1009.0
20260507154416 59 270 4.0 13.0 0.00 0.36 0.24 43 1009.1
20260507153416 58 0 4.0 9.0 0.00 0.36 0.24 42 1009.1
20260507152416 58 315 5.0 9.0 0.00 0.36 0.24 44 1009.3
20260507151416 58 0 7.0 11.0 0.00 0.36 0.24 44 1009.4
20260507150436 58 315 2.0 5.0 0.00 0.36 0.24 50 1009.4
20260507145416 57 23 5.0 8.0 0.00 0.36 0.24 50 1009.3
20260507144416 57 315 5.0 8.0 0.00 0.36 0.24 52 1009.4
20260507143436 57 315 4.0 11.0 0.00 0.36 0.24 58 1009.4
20260507142416 57 293 4.0 6.0 0.00 0.36 0.24 63 1009.4
20260507141416 56 338 4.0 9.0 0.00 0.36 0.24 65 1009.4
20260507140436 55 23 5.0 8.0 0.00 0.36 0.24 67 1009.4
20260507135416 55 315 2.0 4.0 0.00 0.36 0.24 71 1009.4
20260507134416 53 293 1.0 3.0 0.00 0.36 0.24 75 1009.5
20260507133416 54 338 3.0 8.0 0.00 0.36 0.24 75 1009.5
20260507132416 54 23 2.0 4.0 0.00 0.36 0.24 79 1009.4
20260507131417 53 338 2.0 5.0 0.00 0.36 0.24 82 1009.3
20260507130416 52 315 2.0 5.0 0.00 0.36 0.24 81 1009.5
20260507125436 52 293 2.0 5.0 0.00 0.36 0.24 84 1009.4
20260507124416 51 315 1.0 3.0 0.00 0.36 0.24 85 1009.4
20260507123418 51 315 2.0 4.0 0.00 0.36 0.24 87 1009.5
20260507122416 50 0.0 0.0 0.00 0.36 0.24 87 1009.4
20260507121416 50 0.0 1.0 0.00 0.36 0.24 88 1009.4
20260507120416 49 338 1.0 3.0 0.00 0.36 0.24 88 1009.4
20260507115416 49 315 1.0 2.0 0.00 0.36 0.24 89 1009.2
20260507114416 49 315 2.0 5.0 0.00 0.36 0.24 89 1008.9
20260507113416 49 293 3.0 5.0 0.00 0.36 0.24 90 1008.9
20260507112416 49 0.0 1.0 0.00 0.36 0.24 91 1008.9
20260507111416 49 338 1.0 2.0 0.00 0.36 0.24 92 1008.9
20260507110436 50 315 2.0 4.0 0.00 0.36 0.24 93 1009.0
20260507105415 50 338 1.0 2.0 0.00 0.36 0.24 93 1008.9
20260507104416 50 0.0 1.0 0.01 0.36 0.24 93 1008.6
20260507103416 50 0.0 1.0 0.01 0.36 0.24 93 1008.3
20260507102415 50 0.0 1.0 0.02 0.36 0.24 93 1008.2
20260507101455 50 0.0 0.0 0.02 0.36 0.24 93 1008.0
20260507100415 50 0.0 0.0 0.03 0.36 0.24 93 1008.1
20260507095416 50 0.0 1.0 0.03 0.36 0.24 93 1008.1
20260507094415 50 0.0 0.0 0.03 0.35 0.23 93 1008.2
20260507093416 50 0.0 1.0 0.04 0.35 0.23 93 1008.1
20260507092415 50 0.0 0.0 0.03 0.34 0.22 93 1007.9
20260507091415 50 0.0 1.0 0.03 0.34 0.22 93 1007.5
20260507090415 50 0.0 1.0 0.02 0.33 0.21 92 1007.5
20260507085415 50 315 1.0 1.0 0.03 0.33 0.21 92 1007.6
20260507084415 50 0.0 0.0 0.04 0.32 0.20 92 1007.8
20260507083415 50 0.0 0.0 0.03 0.31 0.19 92 1007.8
20260507082415 50 0.0 0.0 0.04 0.31 0.19 92 1007.9
20260507081415 50 0.0 1.0 0.05 0.31 0.19 92 1007.6
20260507080417 50 0.0 0.0 0.06 0.31 0.19 92 1007.3
20260507075417 50 0.0 0.0 0.06 0.30 0.18 92 1007.9
20260507074416 50 0.0 1.0 0.05 0.28 0.16 92 1007.9
20260507073416 50 293 1.0 2.0 0.06 0.28 0.16 92 1007.5
20260507072416 51 0.0 1.0 0.06 0.27 0.15 91 1007.6
20260507071416 51 0.0 0.0 0.12 0.26 0.14 91 1008.0
20260507070416 51 0.0 1.0 0.13 0.25 0.13 91 1007.7
20260507065416 51 23 1.0 3.0 0.12 0.24 0.12 91 1007.8
20260507064436 51 0.0 1.0 0.11 0.23 0.11 90 1007.1
20260507063416 51 338 1.0 4.0 0.10 0.22 0.10 90 1007.6
20260507062416 52 293 1.0 1.0 0.09 0.21 0.09 88 1007.6
20260507061416 53 0.0 2.0 0.02 0.14 0.03 86 1007.9
20260507060416 53 0.0 1.0 0.00 0.12 0.00 86 1006.6
20260507055416 53 315 3.0 4.0 0.00 0.12 0.00 85 1006.7
20260507054416 53 338 1.0 2.0 0.00 0.12 0.00 85 1006.6
20260507053416 53 0.0 2.0 0.00 0.12 0.00 86 1006.8
20260507052436 53 23 1.0 5.0 0.00 0.12 0.00 86 1006.8
20260507051416 54 315 1.0 2.0 0.00 0.12 0.00 87 1007.0
20260507050417 54 0.0 1.0 0.00 0.12 0.00 88 1007.0
20260507045416 54 0.0 0.0 0.00 0.12 0.00 88 1006.8
20260507044416 54 293 2.0 4.0 0.00 0.12 0.00 88 1007.0
20260507043416 55 315 2.0 4.0 0.00 0.12 0.00 89 1007.3
20260507042417 55 293 1.0 2.0 0.00 0.12 0.00 91 1007.2
20260507041416 57 0.0 1.0 0.00 0.12 0.00 92 1007.2
20260507040416 58 293 2.0 3.0 0.00 0.12 0.00 93 1006.9
20260507035416 58 0.0 0.0 0.00 0.12 0.12 94 1006.6
20260507034416 58 0.0 0.0 0.01 0.12 0.12 94 1006.7
20260507033436 58 0.0 0.0 0.03 0.12 0.12 94 1006.6
20260507032416 58 0.0 0.0 0.04 0.12 0.12 94 1006.5
20260507031416 58 0.0 0.0 0.04 0.12 0.12 94 1006.7
20260507030436 58 0.0 0.0 0.04 0.12 0.12 94 1006.9
20260507025416 58 0.0 0.0 0.05 0.12 0.12 94 1006.8
20260507024415 58 0.0 0.0 0.04 0.11 0.11 94 1007.0
20260507023416 58 315 3.0 4.0 0.02 0.09 0.09 94 1007.0
20260507022415 58 0.0 0.0 0.01 0.08 0.08 94 1006.6
20260507021416 58 0.0 0.0 0.01 0.08 0.08 94 1006.6
20260507020435 58 0.0 0.0 0.01 0.08 0.08 93 1006.8
20260507015415 57 0.0 0.0 0.00 0.07 0.07 93 1006.8
20260507014415 57 0.0 0.0 0.00 0.07 0.07 93 1006.8
20260507013416 57 0.0 0.0 0.00 0.07 0.07 93 1006.7
20260507012415 57 0.0 0.0 0.00 0.07 0.07 93 1006.7
20260507011435 57 0.0 0.0 0.00 0.07 0.07 93 1006.7
20260507010415 57 0.0 0.0 0.00 0.07 0.07 93 1006.6
20260507005415 57 0.0 0.0 0.00 0.07 0.07 93 1006.6
20260507004415 57 0.0 0.0 0.00 0.07 0.07 93 1006.4
20260507003415 57 0.0 0.0 0.00 0.07 0.07 93 1006.6
20260507002415 58 0.0 0.0 0.00 0.07 0.07 92 1006.4
20260507001415 58 0.0 0.0 0.00 0.07 0.07 92 1006.3
20260507000415 58 0.0 0.0 0.00 0.07 0.07 93 1006.4
20260506235417 58 0.0 0.0 0.00 0.07 0.07 93 1006.3
20260506234417 58 0.0 0.0 0.00 0.07 0.07 93 1006.4
20260506233417 58 0.0 0.0 0.00 0.07 0.07 93 1006.4
20260506232417 59 0.0 0.0 0.00 0.07 0.07 93 1006.3
20260506231417 59 0.0 0.0 0.00 0.07 0.07 93 1006.2
20260506230437 58 0.0 0.0 0.00 0.07 0.07 93 1006.2
20260506225419 58 0.0 0.0 0.00 0.07 0.07 92 1006.2
20260506224417 58 0.0 0.0 0.00 0.07 0.07 92 1006.1
20260506223417 58 0.0 0.0 0.00 0.07 0.07 92 1006.1
20260506222417 58 0.0 0.0 0.00 0.07 0.07 92 1006.0
20260506221417 58 0.0 0.0 0.00 0.07 0.07 92 1005.9
20260506220417 58 0.0 0.0 0.00 0.07 0.07 92 1005.9
20260506215417 58 0.0 0.0 0.00 0.07 0.07 92 1005.8
20260506214437 57 0.0 0.0 0.00 0.07 0.07 92 1005.8
20260506213417 57 0.0 0.0 0.00 0.07 0.07 92 1005.8
20260506212417 57 0.0 0.0 0.00 0.07 0.07 92 1005.8
20260506211417 57 0.0 0.0 0.00 0.07 0.07 92 1005.6
20260506210417 58 0.0 0.0 0.00 0.07 0.07 91 1005.6
20260506205417 58 0.0 0.0 0.00 0.07 0.07 91 1005.7
20260506204417 58 0.0 0.0 0.00 0.07 0.07 91 1005.7
20260506203437 58 0.0 0.0 0.00 0.07 0.07 91 1005.8
20260506202437 59 0.0 0.0 0.01 0.07 0.07 91 1006.0
20260506201417 59 0.0 0.0 0.01 0.07 0.07 91 1006.2
20260506200417 58 0.0 0.0 0.01 0.07 0.07 90 1006.3
20260506195438 59 0.0 0.0 0.01 0.07 0.07 90 1006.4
20260506194417 59 0.0 0.0 0.01 0.07 0.07 91 1006.3
20260506193417 59 0.0 0.0 0.01 0.07 0.07 90 1006.2
20260506192417 59 0.0 0.0 0.00 0.06 0.06 90 1006.4
20260506191416 59 0.0 0.0 0.01 0.06 0.06 90 1006.5
20260506190417 59 113 1.0 2.0 0.02 0.06 0.06 90 1006.5
20260506185416 59 0.0 0.0 0.03 0.06 0.06 91 1006.7
20260506184417 59 0.0 0.0 0.04 0.06 0.06 91 1006.9
20260506183437 58 0.0 1.0 0.05 0.06 0.06 91 1007.0
20260506182437 58 203 1.0 2.0 0.05 0.06 0.06 91 1007.1
20260506181417 57 135 1.0 2.0 0.05 0.05 0.05 91 1007.2